Notices

What's New in latest Release from April 7th, 2021:

- Updated Glossary, including Speed of Maximum Gust, and Total Hourly Precipitation

- Updated national and regional climate services offices contacts and prices information

- Addition of station inventory lists for 1981-2010, 1971-2000, and 1961-1990 Normals.

If you haven't already, please take our survey and provide feedback about our website: https://eccc.sondage-survey.ca/f/LanguageSelection.aspx?s=442ca660-fcf1-47c0-95a9-59707d6fd709

Hourly Data Report for May 24, 2020

TRENTON A
ONTARIO
Current Station Operator: DND

44°07'00.000" N
77°32'00.000" W
86.30 m
6158875
71621
YTR

Download Data

Hourly Data (May 2020)
Hourly Data Report for May 24, 2020
TIME
LST
Temp Definition
°C
Dew Point Definition
°C
Rel Hum Definition
%
Precip. Amount Definition
mm

Wind Dir Definition
10's deg

Wind Spd Definition
km/h
Visibility Definition
km
Stn Press Definition
kPa
Hmdx Definition


Wind Chill Definition


Weather Definition


00:00 13.9 10.3 79   4 5 24.1 100.86     Clear
01:00 12.8 7.0 68   5 15 24.1 100.84     Clear
02:00 12.8 4.6 57   5 9 24.1 100.89     Clear
03:00 13.4 4.1 53   6 4 24.1 100.93     Clear
04:00 11.2 5.1 66   5 9 24.1 100.90     Mostly Cloudy
05:00 12.3 3.8 56     0 24.1 100.94     Mostly Cloudy
06:00 15.1 8.5 65     0 24.1 101.00     Mostly Cloudy
07:00 17.8 11.9 68   15 11 24.1 100.98     Mostly Cloudy
08:00 18.3 12.1 67   18 9 24.1 101.01     Cloudy
09:00 18.7 11.8 64   14 9 24.1 101.02     Mostly Cloudy
10:00 20.1 11.5 58   15 11 24.1 101.03     Cloudy
11:00 21.0 12.1 57   15 11 24.1 100.96     Mostly Cloudy
12:00 22.5 12.9 55   13 15 24.1 100.90 25   Mainly Clear
13:00 22.9 13.1 54   16 13 24.1 100.85 26   Mostly Cloudy
14:00 23.4 13.4 53   14 17 24.1 100.78 26   Mostly Cloudy
15:00 23.9 13.6 53   15 15 24.1 100.74 27   Mainly Clear
16:00 24.3 13.9 52   16 15 24.1 100.66 28   Mostly Cloudy
17:00 24.7 14.4 53   15 13 24.1 100.58 28   Mostly Cloudy
18:00 24.8 13.7 50   14 11 24.1 100.51 28   Mostly Cloudy
19:00 24.3 13.5 51   13 13 24.1 100.47 27   Mostly Cloudy
20:00 23.7 13.4 52   14 15 24.1 100.44 27   Cloudy
21:00 22.9 13.1 54   15 18 24.1 100.48 26   Mostly Cloudy
22:00 21.9 13.0 57   18 17 24.1 100.49 25   Rain Showers
23:00 20.8 13.2 62   19 9 24.1 100.51     Rain Showers

Notes on Data Quality.

Legend

  • E = Estimated
  • M = Missing
  • NA = Not Available*
  • [empty] = Indicates an unobserved value
Date modified: